{"data":{"norad_id":68392,"intl_designator":"2026-063N","name":"STARLINK-37215","alt_names":[],"object_type":"PAYLOAD","status":"ACTIVE","operator":null,"country":"US","launch_date":"2026-03-26","launch_site_code":"AFWTR","launch_vehicle":null,"mission":null,"orbit_class":"UNKNOWN","rcs_meters":null,"size_class":null,"mass_kg":null,"dimensions":null,"purposes":["comms"],"wikipedia_slug":null,"has_3d_model":false,"image_url":null,"decayed_at":null,"tle_current":{"epoch":"2026-05-25T00:00:02.000160Z","epoch_age_seconds":68335,"freshness":"FRESH","line1":"1 68392U 26063N   26145.00002315 -.00046863  00000+0 -14573-2 0  9994","line2":"2 68392  97.2844 287.5387 0000625  26.5759 146.4408 15.33465362  5595","mean_motion":15.33465362,"eccentricity":6.25e-5,"inclination_deg":97.2844,"raan_deg":287.5387,"arg_perigee_deg":26.5759,"mean_anomaly_deg":146.4408,"bstar":-0.0014573,"rev_number":559,"period_min":93.904957730633,"perigee_km":465.05486593788,"apogee_km":465.9103183869,"semimajor_km":6843.6195921624,"source":"CELESTRAK","updated_at":"2026-05-25T13:38:21.930665Z"}}}